| time (UTC) | temp C | wind direction | speed KPH | gust KPH | rain 1hr cm | rain 24hr cm | rain mn cm | humidity % | barometer mb |
| 20260508130031 | 11 | 329 | 9.7 | 16.1 | 0.00 | 0.00 | 0.00 | 68 | 1014.7 |
| 20260508124533 | 10 | 336 | 8.0 | 16.1 | 0.00 | 0.00 | 0.00 | 67 | 1014.7 |
| 20260508121609 | 10 | 337 | 6.4 | 12.9 | 0.00 | 0.00 | 0.00 | 64 | 1014.5 |
| 20260508120032 | 10 | 345 | 6.4 | 14.5 | 0.00 | 0.00 | 0.00 | 64 | 1014.5 |
| 20260508111647 | 10 | 19 | 6.4 | 11.3 | 0.00 | 0.00 | 0.00 | 62 | 1014.1 |
| 20260508110149 | 10 | 32 | 4.8 | 8.0 | 0.00 | 0.00 | 0.00 | 61 | 1014.1 |
| 20260508101547 | 10 | 38 | 4.8 | 9.7 | 0.00 | 0.00 | 0.00 | 61 | 1014.1 |
| 20260508100029 | 10 | 38 | 6.4 | 11.3 | 0.00 | 0.00 | 0.00 | 60 | 1014.1 |
| 20260508094532 | 10 | 24 | 6.4 | 9.7 | 0.00 | 0.00 | 0.00 | 59 | 1014.0 |
| 20260508093029 | 10 | 22 | 6.4 | 9.7 | 0.00 | 0.00 | 0.00 | 57 | 1013.9 |
| 20260508090032 | 11 | 37 | 4.8 | 9.7 | 0.00 | 0.00 | 0.00 | 54 | 1013.9 |
| 20260508084532 | 11 | 39 | 3.2 | 8.0 | 0.00 | 0.00 | 0.00 | 54 | 1013.9 |
| 20260508083030 | 11 | 11 | 3.2 | 6.4 | 0.00 | 0.00 | 0.00 | 53 | 1013.9 |
| 20260508081530 | 12 | 65 | 3.2 | 6.4 | 0.00 | 0.00 | 0.00 | 53 | 1013.9 |
| 20260508080030 | 12 | 35 | 0.0 | 4.8 | 0.00 | 0.00 | 0.00 | 53 | 1013.9 |
| 20260508074533 | 12 | 194 | 1.6 | 6.4 | 0.00 | 0.00 | 0.00 | 53 | 1013.9 |
| 20260508071531 | 12 | 105 | 0.0 | 4.8 | 0.00 | 0.00 | 0.00 | 53 | 1013.9 |
| 20260508070043 | 12 | 245 | 0.0 | 6.4 | 0.00 | 0.00 | 0.00 | 53 | 1013.8 |
| 20260508064532 | 12 | 172 | 1.6 | 8.0 | 0.00 | 0.00 | 0.00 | 51 | 1013.8 |
| 20260508061530 | 11 | 295 | 1.6 | 9.7 | 0.00 | 0.00 | 0.00 | 48 | 1013.8 |
| 20260508060029 | 12 | 312 | 1.6 | 6.4 | 0.00 | 0.00 | 0.00 | 46 | 1013.9 |
| 20260508054531 | 11 | 313 | 0.0 | 6.4 | 0.00 | 0.00 | 0.00 | 46 | 1013.8 |
| 20260508051606 | 12 | 282 | 4.8 | 8.0 | 0.00 | 0.00 | 0.00 | 43 | 1013.9 |
| 20260508044607 | 13 | 244 | 3.2 | 9.7 | 0.00 | 0.00 | 0.00 | 43 | 1013.7 |
| 20260508043028 | 13 | 217 | 3.2 | 8.0 | 0.00 | 0.00 | 0.00 | 44 | 1013.7 |
| 20260508041530 | 13 | 235 | 4.8 | 11.3 | 0.00 | 0.00 | 0.00 | 43 | 1013.6 |
| 20260508034532 | 15 | 238 | 8.0 | 20.9 | 0.00 | 0.00 | 0.00 | 37 | 1013.3 |
| 20260508031533 | 16 | 229 | 8.0 | 14.5 | 0.00 | 0.00 | 0.00 | 32 | 1013.0 |
| 20260508030030 | 16 | 219 | 8.0 | 16.1 | 0.00 | 0.00 | 0.00 | 30 | 1013.0 |
| 20260508023031 | 17 | 255 | 12.9 | 24.1 | 0.00 | 0.00 | 0.00 | 28 | 1012.8 |
| 20260508021608 | 18 | 261 | 12.9 | 24.1 | 0.00 | 0.00 | 0.00 | 27 | 1012.7 |
| 20260508020028 | 18 | 259 | 14.5 | 33.8 | 0.00 | 0.00 | 0.00 | 26 | 1012.6 |
| 20260508013030 | 20 | 255 | 17.7 | 33.8 | 0.00 | 0.00 | 0.00 | 23 | 1012.5 |
| 20260508011531 | 21 | 258 | 17.7 | 35.4 | 0.00 | 0.00 | 0.00 | 23 | 1012.6 |
| 20260508010107 | 21 | 265 | 17.7 | 37.0 | 0.00 | 0.00 | 0.00 | 22 | 1012.7 |
| 20260508004603 | 21 | 272 | 17.7 | 37.0 | 0.00 | 0.00 | 0.00 | 21 | 1012.7 |
| 20260508001532 | 22 | 271 | 17.7 | 35.4 | 0.00 | 0.00 | 0.00 | 21 | 1012.7 |
| 20260508000037 | 22 | 268 | 16.1 | 33.8 | 0.00 | 0.00 | 0.00 | 22 | 1012.7 |
| 20260507234533 | 22 | 264 | 19.3 | 41.8 | 0.00 | 0.00 | 0.00 | 23 | 1012.7 |
| 20260507231532 | 21 | 256 | 20.9 | 40.2 | 0.00 | 0.00 | 0.00 | 27 | 1012.9 |
| 20260507230029 | 21 | 255 | 20.9 | 40.2 | 0.00 | 0.00 | 0.00 | 28 | 1012.9 |
| 20260507224532 | 22 | 249 | 22.5 | 40.2 | 0.00 | 0.00 | 0.00 | 28 | 1012.9 |
| 20260507223030 | 23 | 248 | 20.9 | 35.4 | 0.00 | 0.00 | 0.00 | 29 | 1013.0 |
| 20260507220147 | 22 | 264 | 14.5 | 33.8 | 0.00 | 0.00 | 0.00 | 32 | 1013.5 |
| 20260507214530 | 22 | 268 | 17.7 | 33.8 | 0.00 | 0.00 | 0.00 | 33 | 1013.6 |
| 20260507213035 | 23 | 262 | 17.7 | 35.4 | 0.00 | 0.00 | 0.00 | 35 | 1013.8 |
| 20260507210031 | 22 | 270 | 11.3 | 27.4 | 0.00 | 0.00 | 0.00 | 39 | 1014.1 |
| 20260507204608 | 22 | 280 | 14.5 | 30.6 | 0.00 | 0.00 | 0.00 | 39 | 1014.2 |
| 20260507203032 | 22 | 285 | 12.9 | 29.0 | 0.00 | 0.00 | 0.00 | 40 | 1014.3 |
| 20260507201531 | 22 | 282 | 12.9 | 24.1 | 0.00 | 0.00 | 0.00 | 41 | 1014.5 |
| 20260507193031 | 20 | 284 | 12.9 | 25.7 | 0.00 | 0.00 | 0.00 | 44 | 1014.8 |
| 20260507190105 | 18 | 266 | 20.9 | 38.6 | 0.00 | 0.00 | 0.00 | 45 | 1015.1 |
| 20260507184533 | 19 | 275 | 19.3 | 38.6 | 0.00 | 0.00 | 0.00 | 47 | 1015.2 |
| 20260507183040 | 18 | 283 | 14.5 | 32.2 | 0.00 | 0.00 | 0.00 | 50 | 1015.5 |
| 20260507180031 | 18 | 301 | 9.7 | 20.9 | 0.00 | 0.00 | 0.00 | 53 | 1015.8 |
| 20260507173030 | 17 | 295 | 8.0 | 19.3 | 0.00 | 0.00 | 0.00 | 57 | 1016.2 |
| 20260507171605 | 16 | 284 | 11.3 | 22.5 | 0.00 | 0.00 | 0.00 | 58 | 1016.3 |
| 20260507170145 | 16 | 273 | 11.3 | 22.5 | 0.00 | 0.00 | 0.00 | 60 | 1016.4 |
| 20260507164607 | 15 | 269 | 11.3 | 22.5 | 0.00 | 0.00 | 0.00 | 62 | 1016.3 |
| 20260507163031 | 15 | 273 | 12.9 | 27.4 | 0.00 | 0.00 | 0.00 | 63 | 1016.5 |
| 20260507161533 | 14 | 275 | 11.3 | 29.0 | 0.00 | 0.00 | 0.00 | 64 | 1016.5 |
| 20260507153028 | 12 | 258 | 16.1 | 32.2 | 0.00 | 0.00 | 0.00 | 70 | 1016.6 |
| 20260507151603 | 12 | 262 | 16.1 | 29.0 | 0.00 | 0.00 | 0.00 | 72 | 1016.6 |
| 20260507150037 | 11 | 266 | 16.1 | 33.8 | 0.00 | 0.00 | 0.00 | 75 | 1016.6 |
| 20260507144534 | 11 | 265 | 16.1 | 33.8 | 0.00 | 0.00 | 0.00 | 79 | 1016.7 |
| 20260507143031 | 10 | 286 | 12.9 | 32.2 | 0.00 | 0.00 | 0.00 | 81 | 1016.7 |
| 20260507141531 | 10 | 307 | 12.9 | 22.5 | 0.00 | 0.00 | 0.00 | 83 | 1016.7 |
| 20260507140032 | 10 | 341 | 16.1 | 24.1 | 0.00 | 0.00 | 0.00 | 84 | 1016.5 |
| 20260507134533 | 9 | 360 | 14.5 | 22.5 | 0.00 | 0.00 | 0.00 | 85 | 1016.3 |
| 20260507131645 | 9 | 340 | 9.7 | 17.7 | 0.00 | 0.00 | 0.00 | 84 | 1016.1 |